Weather History for Albuquerque Double Eagle, NM

Change the Weather History Date:

Friday, December 28, 2012

  Actual Average Record
Temperature  
Mean Temperature 20 °F -  
Max Temperature 30 °F - - ()
Min Temperature 10 °F - - ()
Degree Days  
Heating Degree Days 45    
Moisture  
Dew Point 9 °F    
Average Humidity 69    
Maximum Humidity 93    
Minimum Humidity 46    
Precipitation  
Precipitation 0.00 in - - ()
Sea Level Pressure  
Sea Level Pressure 30.02 in    
Wind  
Wind Speed 6 mph (NNW)    
Max Wind Speed 21 mph    
Max Gust Speed -    
Visibility 10 miles    
Events      
T = Trace of Precipitation, MM = Missing Value Source: NWS Daily Summary

Daily Weather History Graph

Daily Weather History Graph

Search for Another Location

Airport:

Trip Planner

Search our weather history database for the weather conditions in past years. The results will help you decide how hot, cold, wet, or windy it might be!

Date:

Astronomy

Dec. 28, 2012 Rise Set
Actual Time 7:14 AM MST 5:03 PM MST
Civil Twilight 6:46 AM MST 5:31 PM MST
Nautical Twilight 6:14 AM MST 6:03 PM MST
Astronomical Twilight 5:43 AM MST 6:34 PM MST
Moon 5:40 PM MST (12/28) 7:12 AM MST (12/28)
Length of Visible Light 10h 45m
Length of Day
9h 48m
Full, 100% of the Moon is Illuminated
Dec 28
Full
Jan 4
Last Quarter
Jan 11
New
Jan 18
First Quarter
Jan 26
Full

Hourly Weather History & Observations

Time (MST) Temp. Windchill Dew Point Humidity Pressure Visibility Wind Dir Wind Speed Gust Speed Precip Events Conditions
12:15 AM 12.2 °F 1.7 °F 6.8 °F 79% 29.88 in 10.0 mi SW 6.9 mph - N/A   Clear
12:35 AM 14.0 °F 6.5 °F 6.8 °F 73% 29.89 in 10.0 mi WNW 4.6 mph - N/A   Clear
12:55 AM 14.0 °F - 8.6 °F 79% 29.89 in 10.0 mi Calm Calm - N/A   Scattered Clouds
1:15 AM 14.0 °F 8.2 °F 8.6 °F 79% 29.89 in 10.0 mi NW 3.5 mph - N/A   Overcast
1:35 AM 10.4 °F - 6.8 °F 85% 29.90 in 10.0 mi Calm Calm - N/A   Scattered Clouds
1:55 AM 14.0 °F 5.1 °F 8.6 °F 79% 29.90 in 10.0 mi NW 5.8 mph - N/A   Scattered Clouds
2:15 AM 15.8 °F 8.6 °F 10.4 °F 79% 29.91 in 10.0 mi NNW 4.6 mph - N/A   Overcast
2:35 AM 15.8 °F - 10.4 °F 79% 29.92 in 10.0 mi Calm Calm - N/A   Overcast
2:55 AM 17.6 °F 10.7 °F 10.4 °F 73% 29.92 in 10.0 mi WNW 4.6 mph - N/A   Overcast
3:15 AM 17.6 °F - 10.4 °F 73% 29.92 in 10.0 mi Calm Calm - N/A   Scattered Clouds
3:35 AM 17.6 °F - 10.4 °F 73% 29.92 in 10.0 mi Calm Calm - N/A   Scattered Clouds
4:15 AM 14.0 °F 8.2 °F 8.6 °F 79% 29.92 in 10.0 mi NW 3.5 mph - N/A   Clear
4:35 AM 12.2 °F - 6.8 °F 79% 29.92 in 10.0 mi Calm Calm - N/A   Clear
5:50 AM 15.8 °F 6.1 °F 10.4 °F 79% 29.96 in 10.0 mi NW 6.9 mph - N/A   Mostly Cloudy
6:50 AM 15.8 °F 6.1 °F 10.4 °F 79% 29.99 in 10.0 mi NW 6.9 mph - N/A   Mostly Cloudy
7:50 AM 15.8 °F 6.1 °F 14.0 °F 93% 30.00 in 10.0 mi NNW 6.9 mph - N/A   Scattered Clouds
8:50 AM 24.8 °F 12.9 °F 15.8 °F 69% 30.03 in 10.0 mi NNW 13.8 mph - N/A   Partly Cloudy
9:50 AM 26.6 °F 14.3 °F 15.8 °F 64% 30.04 in 10.0 mi NW 16.1 mph - N/A   Partly Cloudy
10:50 AM 28.4 °F 17.5 °F 14.0 °F 55% 30.06 in 10.0 mi NW 13.8 mph - N/A   Scattered Clouds
11:50 AM 30.2 °F 18.9 °F 12.2 °F 47% 30.03 in 10.0 mi NNW 16.1 mph - N/A   Scattered Clouds
4:50 PM 26.6 °F 12.7 °F 8.6 °F 47% 30.06 in 10.0 mi NNW 20.7 mph - N/A   Scattered Clouds
5:45 PM 24.8 °F 20.5 °F 6.8 °F 46% 30.11 in 10.0 mi NNE 3.5 mph - N/A   Clear
9:15 PM 21.2 °F 9.5 °F 6.8 °F 54% 30.16 in 10.0 mi North 11.5 mph - N/A   Clear
9:35 PM 19.4 °F 9.5 °F 6.8 °F 58% 30.18 in 10.0 mi North 8.1 mph - N/A   Clear
9:55 PM 19.4 °F 11.5 °F 6.8 °F 58% 30.17 in 10.0 mi NNE 5.8 mph - N/A   Clear
10:15 PM 19.4 °F 8.6 °F 6.8 °F 58% 30.18 in 10.0 mi North 9.2 mph - N/A   Clear
10:35 PM 19.4 °F 11.5 °F 6.8 °F 58% 30.19 in 10.0 mi North 5.8 mph - N/A   Clear
10:55 PM 17.6 °F 10.7 °F 6.8 °F 63% 30.20 in 10.0 mi North 4.6 mph - N/A   Clear
11:15 PM 15.8 °F 6.1 °F 6.8 °F 68% 30.20 in 10.0 mi NW 6.9 mph - N/A   Clear
11:35 PM 14.0 °F 2.9 °F 3.2 °F 62% 30.21 in 10.0 mi West 8.1 mph - N/A   Clear
11:55 PM 17.6 °F 7.3 °F 6.8 °F 63% 30.21 in 10.0 mi NNW 8.1 mph - N/A   Clear